| time (UTC) | temp F | wind direction | speed MPH | gust MPH | rain 1hr in | rain 24hr in | rain mn in | humidity % | barometer mb |
| 20260510160328 | 58 | 332 | 4.0 | 11.0 | 0.00 | 0.28 | 0.00 | 61 | 1014.7 |
| 20260510155828 | 58 | 293 | 4.0 | 11.0 | 0.00 | 0.28 | 0.00 | 63 | 1014.7 |
| 20260510155328 | 57 | 290 | 4.0 | 10.0 | 0.00 | 0.28 | 0.00 | 62 | 1014.8 |
| 20260510154829 | 57 | 240 | 4.0 | 10.0 | 0.00 | 0.28 | 0.00 | 64 | 1014.7 |
| 20260510154328 | 56 | 302 | 4.0 | 11.0 | 0.00 | 0.28 | 0.00 | 62 | 1014.8 |
| 20260510153828 | 56 | 305 | 3.0 | 11.0 | 0.00 | 0.28 | 0.00 | 63 | 1014.9 |
| 20260510153327 | 56 | 247 | 5.0 | 11.0 | 0.00 | 0.28 | 0.00 | 64 | 1014.8 |
| 20260510152828 | 56 | 268 | 5.0 | 11.0 | 0.00 | 0.28 | 0.00 | 61 | 1014.7 |
| 20260510152328 | 56 | 338 | 5.0 | 12.0 | 0.00 | 0.28 | 0.00 | 63 | 1014.8 |
| 20260510151829 | 56 | 311 | 6.0 | 12.0 | 0.00 | 0.28 | 0.00 | 63 | 1014.7 |
| 20260510151327 | 56 | 0 | 6.0 | 11.0 | 0.00 | 0.28 | 0.00 | 62 | 1014.5 |
| 20260510150827 | 56 | 0 | 6.0 | 12.0 | 0.00 | 0.28 | 0.00 | 62 | 1014.4 |
| 20260510145827 | 55 | 287 | 3.0 | 10.0 | 0.00 | 0.28 | 0.00 | 63 | 1014.4 |
| 20260510145328 | 55 | 327 | 5.0 | 11.0 | 0.00 | 0.28 | 0.00 | 66 | 1014.3 |
| 20260510144828 | 54 | 244 | 5.0 | 11.0 | 0.00 | 0.28 | 0.00 | 63 | 1014.4 |
| 20260510144552 | 55 | 234 | 4.0 | 9.0 | 0.00 | 0.28 | 0.00 | 65 | 1014.4 |
| 20260510143828 | 55 | 299 | 3.0 | 10.0 | 0.00 | 0.28 | 0.00 | 67 | 1014.3 |
| 20260510143328 | 54 | 279 | 4.0 | 11.0 | 0.00 | 0.28 | 0.00 | 64 | 1014.2 |
| 20260510142831 | 54 | 283 | 4.0 | 11.0 | 0.00 | 0.28 | 0.00 | 64 | 1014.1 |
| 20260510142329 | 53 | 296 | 3.0 | 10.0 | 0.00 | 0.28 | 0.00 | 65 | 1014.1 |
| 20260510141828 | 53 | 300 | 2.0 | 8.0 | 0.00 | 0.28 | 0.00 | 69 | 1014.0 |
| 20260510141327 | 53 | 292 | 2.0 | 7.0 | 0.00 | 0.28 | 0.00 | 70 | 1013.9 |
| 20260510140828 | 52 | 255 | 2.0 | 7.0 | 0.00 | 0.28 | 0.00 | 67 | 1013.9 |
| 20260510140329 | 52 | 243 | 2.0 | 7.0 | 0.00 | 0.28 | 0.00 | 68 | 1013.9 |
| 20260510135828 | 52 | 302 | 2.0 | 7.0 | 0.00 | 0.28 | 0.00 | 70 | 1013.9 |
| 20260510135329 | 51 | 266 | 2.0 | 7.0 | 0.00 | 0.28 | 0.00 | 67 | 1013.9 |
| 20260510134828 | 52 | 246 | 1.0 | 5.0 | 0.00 | 0.28 | 0.00 | 71 | 1013.8 |
| 20260510134328 | 52 | 296 | 0.0 | 4.0 | 0.00 | 0.28 | 0.00 | 73 | 1013.7 |
| 20260510133828 | 51 | 296 | 1.0 | 5.0 | 0.00 | 0.28 | 0.00 | 73 | 1013.7 |
| 20260510133329 | 50 | 296 | 2.0 | 7.0 | 0.00 | 0.28 | 0.00 | 74 | 1013.7 |
| 20260510132827 | 50 | 294 | 2.0 | 7.0 | 0.00 | 0.28 | 0.00 | 74 | 1013.6 |
| 20260510132327 | 50 | 292 | 1.0 | 5.0 | 0.00 | 0.28 | 0.00 | 75 | 1013.7 |
| 20260510131828 | 49 | 292 | 1.0 | 5.0 | 0.00 | 0.28 | 0.00 | 76 | 1013.7 |
| 20260510131328 | 49 | 292 | 1.0 | 5.0 | 0.00 | 0.28 | 0.00 | 76 | 1013.7 |
| 20260510130828 | 49 | 292 | 1.0 | 5.0 | 0.00 | 0.28 | 0.00 | 76 | 1013.9 |
| 20260510130548 | 49 | 298 | 2.0 | 5.0 | 0.00 | 0.28 | 0.00 | 76 | 1013.8 |
| 20260510125828 | 49 | 298 | 2.0 | 5.0 | 0.00 | 0.28 | 0.00 | 76 | 1013.8 |
| 20260510125327 | 49 | 298 | 2.0 | 5.0 | 0.00 | 0.28 | 0.00 | 77 | 1013.8 |
| 20260510124828 | 48 | 298 | 2.0 | 5.0 | 0.00 | 0.28 | 0.00 | 78 | 1013.7 |
| 20260510124327 | 48 | 309 | 2.0 | 7.0 | 0.00 | 0.28 | 0.00 | 78 | 1013.6 |
| 20260510123828 | 48 | 308 | 1.0 | 7.0 | 0.00 | 0.28 | 0.00 | 80 | 1013.7 |
| 20260510122829 | 48 | 309 | 1.0 | 4.0 | 0.00 | 0.28 | 0.00 | 81 | 1013.6 |
| 20260510122551 | 48 | 312 | 1.0 | 4.0 | 0.00 | 0.28 | 0.00 | 82 | 1013.5 |
| 20260510121828 | 48 | 312 | 1.0 | 4.0 | 0.00 | 0.28 | 0.00 | 82 | 1013.6 |
| 20260510120829 | 48 | 312 | 1.0 | 4.0 | 0.00 | 0.28 | 0.00 | 83 | 1013.4 |
| 20260510120327 | 48 | 312 | 1.0 | 4.0 | 0.00 | 0.28 | 0.00 | 83 | 1013.4 |
| 20260510115827 | 48 | 312 | 1.0 | 4.0 | 0.00 | 0.28 | 0.00 | 84 | 1013.3 |
| 20260510115328 | 48 | 336 | 1.0 | 3.0 | 0.00 | 0.28 | 0.00 | 85 | 1013.1 |
| 20260510114827 | 48 | 338 | 0.0 | 3.0 | 0.00 | 0.28 | 0.00 | 85 | 1013.0 |
| 20260510114548 | 48 | 338 | 0.0 | 2.0 | 0.00 | 0.28 | 0.00 | 86 | 1012.9 |
| 20260510113327 | 48 | 338 | 1.0 | 3.0 | 0.00 | 0.28 | 0.00 | 86 | 1012.5 |
| 20260510112827 | 48 | 338 | 1.0 | 3.0 | 0.00 | 0.28 | 0.00 | 87 | 1012.5 |
| 20260510111827 | 47 | 338 | 1.0 | 5.0 | 0.00 | 0.28 | 0.00 | 87 | 1012.3 |
| 20260510111328 | 47 | 338 | 2.0 | 5.0 | 0.00 | 0.28 | 0.00 | 88 | 1012.1 |
| 20260510110827 | 47 | 322 | 2.0 | 4.0 | 0.00 | 0.28 | 0.00 | 89 | 1011.9 |
| 20260510110329 | 48 | 314 | 2.0 | 4.0 | 0.00 | 0.28 | 0.00 | 90 | 1011.7 |
| 20260510105827 | 48 | 314 | 2.0 | 9.0 | 0.00 | 0.28 | 0.00 | 91 | 1011.6 |
| 20260510105547 | 48 | 313 | 3.0 | 10.0 | 0.00 | 0.28 | 0.00 | 91 | 1011.7 |
| 20260510104827 | 48 | 9 | 4.0 | 10.0 | 0.00 | 0.28 | 0.00 | 92 | 1011.5 |
| 20260510104329 | 48 | 344 | 4.0 | 12.0 | 0.00 | 0.28 | 0.00 | 93 | 1011.4 |
| 20260510103828 | 48 | 351 | 3.0 | 12.0 | 0.00 | 0.28 | 0.00 | 93 | 1011.3 |
| 20260510103328 | 48 | 346 | 2.0 | 11.0 | 0.00 | 0.28 | 0.00 | 95 | 1011.2 |
| 20260510102828 | 48 | 336 | 1.0 | 4.0 | 0.00 | 0.28 | 0.00 | 95 | 1011.0 |
| 20260510102327 | 48 | 336 | 1.0 | 4.0 | 0.00 | 0.28 | 0.00 | 95 | 1011.0 |
| 20260510102052 | 48 | 338 | 2.0 | 5.0 | 0.00 | 0.28 | 0.00 | 95 | 1010.9 |
| 20260510101327 | 48 | 338 | 2.0 | 5.0 | 0.00 | 0.28 | 0.00 | 95 | 1010.7 |
| 20260510101048 | 49 | 337 | 2.0 | 4.0 | 0.00 | 0.28 | 0.00 | 95 | 1010.5 |
| 20260510100549 | 49 | 337 | 2.0 | 6.0 | 0.00 | 0.28 | 0.00 | 95 | 1010.3 |
| 20260510095828 | 49 | 333 | 2.0 | 6.0 | 0.00 | 0.28 | 0.00 | 95 | 1010.6 |
| 20260510095328 | 49 | 309 | 2.0 | 5.0 | 0.00 | 0.28 | 0.00 | 95 | 1010.6 |
| 20260510094827 | 49 | 307 | 2.0 | 5.0 | 0.00 | 0.28 | 0.00 | 96 | 1010.3 |
| 20260510094552 | 49 | 303 | 1.0 | 5.0 | 0.00 | 0.28 | 0.00 | 96 | 1010.3 |
| 20260510094051 | 50 | 288 | 1.0 | 4.0 | 0.00 | 0.28 | 0.00 | 96 | 1010.1 |
| 20260510093328 | 50 | 288 | 1.0 | 4.0 | 0.00 | 0.28 | 0.00 | 96 | 1009.9 |
| 20260510092828 | 50 | 288 | 1.0 | 3.0 | 0.00 | 0.28 | 0.00 | 96 | 1009.8 |
| 20260510092323 | 50 | 288 | 2.0 | 6.0 | 0.00 | 0.28 | 0.00 | 96 | 1009.6 |
| 20260510091823 | 50 | 288 | 2.0 | 6.0 | 0.00 | 0.28 | 0.00 | 96 | 1009.5 |
| 20260510091324 | 50 | 284 | 1.0 | 3.0 | 0.00 | 0.28 | 0.00 | 96 | 1009.5 |
| 20260510090823 | 50 | 284 | 2.0 | 4.0 | 0.00 | 0.28 | 0.00 | 96 | 1009.5 |
| 20260510090324 | 50 | 284 | 1.0 | 4.0 | 0.00 | 0.28 | 0.00 | 96 | 1009.6 |
| 20260510085823 | 50 | 253 | 0.0 | 3.0 | 0.00 | 0.28 | 0.00 | 96 | 1009.5 |
| 20260510085323 | 49 | 252 | 1.0 | 3.0 | 0.00 | 0.28 | 0.00 | 96 | 1009.4 |
| 20260510084823 | 49 | 252 | 1.0 | 3.0 | 0.00 | 0.28 | 0.00 | 96 | 1009.2 |
| 20260510084548 | 49 | 252 | 1.0 | 3.0 | 0.00 | 0.28 | 0.00 | 96 | 1009.2 |
| 20260510083824 | 49 | 252 | 1.0 | 3.0 | 0.00 | 0.28 | 0.00 | 96 | 1009.2 |
| 20260510083323 | 49 | 252 | 1.0 | 5.0 | 0.00 | 0.28 | 0.00 | 96 | 1009.1 |
| 20260510082824 | 49 | 252 | 2.0 | 5.0 | 0.00 | 0.28 | 0.00 | 96 | 1009.3 |
| 20260510082323 | 49 | 256 | 2.0 | 4.0 | 0.00 | 0.28 | 0.00 | 96 | 1009.2 |
| 20260510081823 | 49 | 256 | 2.0 | 4.0 | 0.00 | 0.28 | 0.00 | 95 | 1009.1 |
| 20260510081323 | 49 | 215 | 2.0 | 4.0 | 0.00 | 0.28 | 0.00 | 95 | 1009.0 |
| 20260510080823 | 49 | 215 | 2.0 | 4.0 | 0.00 | 0.28 | 0.00 | 95 | 1009.0 |
| 20260510080324 | 49 | 215 | 2.0 | 4.0 | 0.00 | 0.28 | 0.00 | 95 | 1009.0 |
| 20260510080046 | 49 | 206 | 2.0 | 5.0 | 0.00 | 0.28 | 0.00 | 95 | 1008.7 |
| 20260510075323 | 49 | 207 | 3.0 | 9.0 | 0.00 | 0.28 | 0.00 | 95 | 1008.7 |
| 20260510074824 | 48 | 213 | 3.0 | 9.0 | 0.00 | 0.28 | 0.00 | 95 | 1008.9 |
| 20260510074324 | 48 | 201 | 2.0 | 7.0 | 0.00 | 0.28 | 0.00 | 95 | 1008.9 |
| 20260510073824 | 48 | 188 | 2.0 | 6.0 | 0.00 | 0.28 | 0.00 | 95 | 1008.7 |
| 20260510073323 | 48 | 190 | 2.0 | 6.0 | 0.00 | 0.28 | 0.00 | 95 | 1008.5 |
| 20260510072824 | 48 | 217 | 2.0 | 5.0 | 0.00 | 0.28 | 0.00 | 95 | 1008.4 |
| 20260510072323 | 49 | 221 | 2.0 | 5.0 | 0.00 | 0.28 | 0.00 | 95 | 1008.4 |
| 20260510071823 | 49 | 197 | 2.0 | 6.0 | 0.00 | 0.28 | 0.00 | 95 | 1008.4 |
| 20260510071323 | 49 | 197 | 2.0 | 6.0 | 0.00 | 0.28 | 0.00 | 95 | 1008.5 |
| 20260510070823 | 49 | 232 | 2.0 | 6.0 | 0.00 | 0.28 | 0.00 | 95 | 1008.6 |
| 20260510070324 | 49 | 192 | 2.0 | 6.0 | 0.00 | 0.28 | 0.00 | 95 | 1008.6 |
| 20260510065823 | 49 | 190 | 2.0 | 8.0 | 0.00 | 0.28 | 0.00 | 95 | 1008.6 |
| 20260510065324 | 49 | 196 | 3.0 | 8.0 | 0.00 | 0.28 | 0.00 | 95 | 1008.4 |
| 20260510065049 | 49 | 223 | 3.0 | 6.0 | 0.00 | 0.28 | 0.00 | 95 | 1008.3 |
| 20260510064322 | 49 | 180 | 3.0 | 9.0 | 0.00 | 0.28 | 0.00 | 95 | 1008.1 |
| 20260510063823 | 49 | 208 | 3.0 | 9.0 | 0.00 | 0.28 | 0.00 | 95 | 1008.1 |
| 20260510063551 | 49 | 219 | 2.0 | 8.0 | 0.00 | 0.28 | 0.00 | 95 | 1007.9 |
| 20260510062823 | 49 | 221 | 3.0 | 7.0 | 0.00 | 0.28 | 0.00 | 95 | 1008.0 |
| 20260510062323 | 49 | 220 | 2.0 | 7.0 | 0.00 | 0.28 | 0.00 | 95 | 1008.2 |
| 20260510061823 | 49 | 242 | 3.0 | 7.0 | 0.00 | 0.28 | 0.00 | 95 | 1008.1 |
| 20260510061323 | 49 | 186 | 3.0 | 8.0 | 0.00 | 0.28 | 0.00 | 95 | 1008.0 |
| 20260510060823 | 49 | 181 | 3.0 | 8.0 | 0.00 | 0.28 | 0.00 | 95 | 1007.8 |
| 20260510060547 | 49 | 190 | 2.0 | 7.0 | 0.00 | 0.28 | 0.00 | 95 | 1008.1 |
| 20260510055823 | 49 | 193 | 2.0 | 5.0 | 0.00 | 0.28 | 0.00 | 95 | 1008.2 |
| 20260510055323 | 49 | 192 | 3.0 | 5.0 | 0.00 | 0.28 | 0.00 | 94 | 1008.3 |
| 20260510054823 | 49 | 194 | 2.0 | 5.0 | 0.00 | 0.28 | 0.00 | 94 | 1008.4 |
| 20260510054323 | 49 | 191 | 2.0 | 6.0 | 0.00 | 0.28 | 0.00 | 94 | 1008.4 |
| 20260510054041 | 49 | 189 | 3.0 | 8.0 | 0.00 | 0.28 | 0.00 | 94 | 1008.4 |
| 20260510053323 | 49 | 192 | 2.0 | 8.0 | 0.00 | 0.28 | 0.00 | 94 | 1008.5 |
| 20260510052322 | 49 | 209 | 2.0 | 6.0 | 0.00 | 0.28 | 0.00 | 94 | 1008.5 |
| 20260510051823 | 50 | 180 | 2.0 | 6.0 | 0.00 | 0.28 | 0.00 | 94 | 1008.4 |
| 20260510051322 | 50 | 221 | 2.0 | 9.0 | 0.00 | 0.28 | 0.00 | 94 | 1008.4 |
| 20260510050823 | 50 | 197 | 3.0 | 11.0 | 0.00 | 0.28 | 0.00 | 94 | 1008.4 |
| 20260510050323 | 50 | 207 | 3.0 | 11.0 | 0.00 | 0.28 | 0.00 | 94 | 1008.5 |
| 20260510045822 | 50 | 191 | 3.0 | 10.0 | 0.00 | 0.28 | 0.00 | 94 | 1008.4 |
| 20260510045540 | 50 | 193 | 3.0 | 8.0 | 0.00 | 0.28 | 0.00 | 94 | 1008.4 |
| 20260510045051 | 50 | 224 | 4.0 | 8.0 | 0.00 | 0.28 | 0.00 | 94 | 1008.4 |
| 20260510044544 | 50 | 197 | 4.0 | 11.0 | 0.00 | 0.28 | 0.00 | 94 | 1008.3 |
| 20260510043822 | 50 | 223 | 4.0 | 11.0 | 0.00 | 0.28 | 0.00 | 94 | 1008.2 |
| 20260510043321 | 50 | 213 | 3.0 | 9.0 | 0.00 | 0.28 | 0.00 | 94 | 1008.1 |
| 20260510042821 | 51 | 200 | 3.0 | 9.0 | 0.01 | 0.28 | 0.00 | 94 | 1008.0 |
| 20260510042323 | 51 | 211 | 3.0 | 11.0 | 0.02 | 0.28 | 0.00 | 94 | 1007.9 |
| 20260510041821 | 51 | 204 | 3.0 | 11.0 | 0.03 | 0.28 | 0.00 | 93 | 1007.9 |
| 20260510041322 | 51 | 234 | 4.0 | 13.0 | 0.04 | 0.28 | 0.00 | 94 | 1008.0 |
| 20260510040821 | 51 | 238 | 4.0 | 13.0 | 0.05 | 0.28 | 0.00 | 93 | 1007.9 |
| 20260510040322 | 51 | 191 | 3.0 | 11.0 | 0.06 | 0.28 | 0.00 | 93 | 1008.0 |
| 20260510035820 | 51 | 175 | 3.0 | 11.0 | 0.08 | 0.28 | 0.28 | 93 | 1008.0 |
| 20260510035317 | 51 | 188 | 3.0 | 11.0 | 0.11 | 0.28 | 0.28 | 93 | 1007.9 |
| 20260510034820 | 51 | 190 | 4.0 | 7.0 | 0.14 | 0.28 | 0.28 | 93 | 1007.8 |
| 20260510034316 | 51 | 180 | 4.0 | 9.0 | 0.17 | 0.28 | 0.28 | 93 | 1007.6 |
| 20260510033817 | 51 | 169 | 4.0 | 9.0 | 0.18 | 0.28 | 0.28 | 93 | 1007.6 |
| 20260510033316 | 51 | 190 | 4.0 | 8.0 | 0.20 | 0.28 | 0.28 | 92 | 1007.7 |
| 20260510032815 | 52 | 187 | 3.0 | 6.0 | 0.20 | 0.27 | 0.27 | 92 | 1007.7 |
| 20260510032315 | 52 | 188 | 3.0 | 9.0 | 0.20 | 0.26 | 0.25 | 92 | 1007.8 |
| 20260510031815 | 52 | 222 | 3.0 | 9.0 | 0.21 | 0.25 | 0.25 | 92 | 1007.9 |
| 20260510031313 | 52 | 195 | 4.0 | 9.0 | 0.22 | 0.24 | 0.24 | 91 | 1008.0 |
| 20260510030814 | 52 | 218 | 4.0 | 9.0 | 0.22 | 0.23 | 0.22 | 91 | 1008.2 |
| 20260510030311 | 52 | 212 | 4.0 | 11.0 | 0.22 | 0.22 | 0.21 | 91 | 1008.1 |
| 20260510025812 | 52 | 240 | 4.0 | 11.0 | 0.20 | 0.20 | 0.19 | 91 | 1008.4 |
| 20260510025312 | 53 | 262 | 4.0 | 13.0 | 0.17 | 0.17 | 0.17 | 90 | 1008.5 |
| 20260510024812 | 53 | 273 | 4.0 | 13.0 | 0.14 | 0.14 | 0.14 | 90 | 1008.5 |
| 20260510024312 | 53 | 246 | 3.0 | 10.0 | 0.11 | 0.11 | 0.11 | 90 | 1008.7 |
| 20260510023811 | 53 | 288 | 4.0 | 14.0 | 0.10 | 0.10 | 0.10 | 89 | 1008.7 |
| 20260510023311 | 53 | 265 | 4.0 | 14.0 | 0.08 | 0.08 | 0.08 | 89 | 1008.8 |
| 20260510022813 | 54 | 298 | 3.0 | 10.0 | 0.07 | 0.07 | 0.07 | 88 | 1008.6 |
| 20260510022536 | 54 | 280 | 3.0 | 10.0 | 0.06 | 0.06 | 0.05 | 87 | 1008.5 |
| 20260510021812 | 54 | 275 | 3.0 | 11.0 | 0.04 | 0.04 | 0.04 | 87 | 1008.4 |
| 20260510021311 | 55 | 249 | 4.0 | 11.0 | 0.02 | 0.02 | 0.02 | 86 | 1008.4 |
| 20260510020811 | 55 | 244 | 5.0 | 15.0 | 0.01 | 0.01 | 0.01 | 86 | 1008.4 |
| 20260510020312 | 55 | 331 | 6.0 | 19.0 | 0.00 | 0.00 | 0.00 | 85 | 1008.2 |
| 20260510020030 | 56 | 281 | 5.0 | 19.0 | 0.00 | 0.00 | 0.00 | 86 | 1008.1 |
| 20260510015312 | 56 | 293 | 5.0 | 11.0 | 0.00 | 0.00 | 0.00 | 87 | 1007.8 |
| 20260510014812 | 56 | 222 | 4.0 | 11.0 | 0.00 | 0.00 | 0.00 | 87 | 1006.6 |
| 20260510014527 | 56 | 187 | 5.0 | 10.0 | 0.00 | 0.00 | 0.00 | 87 | 1006.3 |
| 20260510013812 | 56 | 190 | 5.0 | 14.0 | 0.00 | 0.00 | 0.00 | 87 | 1006.3 |
| 20260510013312 | 56 | 195 | 5.0 | 14.0 | 0.00 | 0.00 | 0.00 | 87 | 1006.1 |
| 20260510012811 | 56 | 182 | 5.0 | 10.0 | 0.00 | 0.00 | 0.00 | 86 | 1006.0 |
| 20260510012311 | 56 | 211 | 5.0 | 10.0 | 0.00 | 0.00 | 0.00 | 86 | 1006.0 |
| 20260510012030 | 56 | 197 | 4.0 | 9.0 | 0.00 | 0.00 | 0.00 | 86 | 1006.1 |
| 20260510011538 | 56 | 196 | 4.0 | 10.0 | 0.00 | 0.00 | 0.00 | 85 | 1006.0 |
| 20260510010811 | 56 | 206 | 4.0 | 11.0 | 0.00 | 0.00 | 0.00 | 85 | 1005.9 |
| 20260510010313 | 56 | 200 | 4.0 | 11.0 | 0.00 | 0.00 | 0.00 | 85 | 1005.9 |
| 20260510005811 | 56 | 211 | 4.0 | 13.0 | 0.00 | 0.00 | 0.00 | 85 | 1005.9 |
| 20260510005313 | 56 | 198 | 4.0 | 13.0 | 0.00 | 0.00 | 0.00 | 85 | 1005.7 |
| 20260510004812 | 56 | 185 | 4.0 | 13.0 | 0.00 | 0.00 | 0.00 | 85 | 1005.6 |
| 20260510004311 | 56 | 205 | 4.0 | 13.0 | 0.00 | 0.00 | 0.00 | 85 | 1005.5 |
| 20260510003811 | 56 | 193 | 4.0 | 11.0 | 0.00 | 0.00 | 0.00 | 85 | 1005.4 |
| 20260510003311 | 56 | 197 | 4.0 | 11.0 | 0.00 | 0.00 | 0.00 | 85 | 1005.5 |
| 20260510002312 | 56 | 175 | 5.0 | 12.0 | 0.00 | 0.00 | 0.00 | 84 | 1005.5 |
| 20260510001311 | 56 | 210 | 4.0 | 11.0 | 0.00 | 0.00 | 0.00 | 83 | 1005.6 |
| 20260510001030 | 57 | 173 | 4.0 | 9.0 | 0.00 | 0.00 | 0.00 | 82 | 1005.5 |
| 20260510000532 | 57 | 203 | 4.0 | 9.0 | 0.00 | 0.00 | 0.00 | 82 | 1005.6 |
| 20260509235811 | 57 | 174 | 4.0 | 10.0 | 0.00 | 0.00 | 0.00 | 82 | 1005.7 |
| 20260509235311 | 57 | 197 | 4.0 | 10.0 | 0.00 | 0.00 | 0.00 | 81 | 1005.8 |
| 20260509234812 | 58 | 220 | 4.0 | 12.0 | 0.00 | 0.00 | 0.00 | 81 | 1005.7 |
| 20260509234312 | 58 | 199 | 4.0 | 12.0 | 0.00 | 0.00 | 0.00 | 80 | 1005.6 |
| 20260509233811 | 58 | 186 | 4.0 | 9.0 | 0.00 | 0.00 | 0.00 | 79 | 1005.5 |
| 20260509233312 | 58 | 185 | 4.0 | 9.0 | 0.00 | 0.00 | 0.00 | 79 | 1005.7 |
| 20260509232811 | 59 | 225 | 4.0 | 11.0 | 0.00 | 0.00 | 0.00 | 79 | 1005.6 |
| 20260509232312 | 59 | 199 | 5.0 | 11.0 | 0.00 | 0.00 | 0.00 | 79 | 1005.4 |
| 20260509231811 | 59 | 194 | 5.0 | 14.0 | 0.00 | 0.00 | 0.00 | 79 | 1005.5 |
| 20260509231312 | 60 | 188 | 5.0 | 14.0 | 0.00 | 0.00 | 0.00 | 78 | 1005.6 |
| 20260509230312 | 59 | 204 | 5.0 | 13.0 | 0.00 | 0.00 | 0.00 | 78 | 1005.5 |
| 20260509225811 | 59 | 213 | 5.0 | 13.0 | 0.00 | 0.00 | 0.00 | 78 | 1005.3 |
| 20260509225311 | 60 | 192 | 6.0 | 16.0 | 0.00 | 0.00 | 0.00 | 77 | 1005.3 |
| 20260509224811 | 60 | 218 | 6.0 | 16.0 | 0.00 | 0.00 | 0.00 | 77 | 1005.4 |
| 20260509224311 | 60 | 199 | 6.0 | 14.0 | 0.00 | 0.00 | 0.00 | 77 | 1005.2 |
| 20260509223811 | 60 | 181 | 6.0 | 12.0 | 0.00 | 0.00 | 0.00 | 76 | 1005.4 |
| 20260509223312 | 61 | 186 | 5.0 | 12.0 | 0.00 | 0.00 | 0.00 | 76 | 1005.5 |
| 20260509222811 | 61 | 178 | 4.0 | 11.0 | 0.00 | 0.00 | 0.00 | 76 | 1005.5 |
| 20260509222311 | 61 | 202 | 5.0 | 12.0 | 0.00 | 0.00 | 0.00 | 76 | 1005.6 |
| 20260509221811 | 61 | 203 | 5.0 | 12.0 | 0.00 | 0.00 | 0.00 | 76 | 1005.6 |
| 20260509221312 | 61 | 183 | 6.0 | 11.0 | 0.00 | 0.00 | 0.00 | 76 | 1005.5 |
| 20260509220808 | 61 | 202 | 6.0 | 11.0 | 0.00 | 0.00 | 0.00 | 76 | 1005.5 |
| 20260509220307 | 61 | 211 | 5.0 | 12.0 | 0.00 | 0.00 | 0.00 | 76 | 1005.6 |
| 20260509215807 | 61 | 212 | 6.0 | 14.0 | 0.00 | 0.00 | 0.00 | 77 | 1005.6 |
| 20260509215307 | 61 | 193 | 7.0 | 14.0 | 0.00 | 0.00 | 0.00 | 76 | 1005.6 |
| 20260509214807 | 61 | 168 | 6.0 | 13.0 | 0.00 | 0.00 | 0.00 | 75 | 1005.6 |
| 20260509214307 | 62 | 214 | 6.0 | 14.0 | 0.00 | 0.00 | 0.00 | 75 | 1005.6 |
| 20260509214033 | 62 | 182 | 5.0 | 14.0 | 0.00 | 0.00 | 0.00 | 77 | 1005.5 |
| 20260509213307 | 62 | 188 | 6.0 | 17.0 | 0.00 | 0.00 | 0.00 | 76 | 1005.6 |
| 20260509212807 | 61 | 244 | 7.0 | 17.0 | 0.00 | 0.00 | 0.00 | 76 | 1005.6 |
| 20260509212307 | 62 | 158 | 6.0 | 13.0 | 0.00 | 0.00 | 0.00 | 75 | 1005.6 |
| 20260509211808 | 62 | 186 | 5.0 | 17.0 | 0.00 | 0.00 | 0.00 | 76 | 1005.6 |
| 20260509211534 | 62 | 213 | 5.0 | 17.0 | 0.00 | 0.00 | 0.00 | 76 | 1005.5 |
| 20260509210807 | 62 | 200 | 5.0 | 12.0 | 0.00 | 0.00 | 0.00 | 77 | 1005.6 |
| 20260509210309 | 61 | 246 | 5.0 | 12.0 | 0.00 | 0.00 | 0.00 | 77 | 1005.7 |
| 20260509205807 | 61 | 172 | 6.0 | 15.0 | 0.00 | 0.00 | 0.00 | 77 | 1005.7 |
| 20260509205308 | 61 | 198 | 7.0 | 16.0 | 0.00 | 0.00 | 0.00 | 76 | 1005.7 |
| 20260509205037 | 61 | 175 | 6.0 | 16.0 | 0.00 | 0.00 | 0.00 | 76 | 1005.6 |
| 20260509204307 | 61 | 199 | 5.0 | 14.0 | 0.00 | 0.00 | 0.00 | 77 | 1005.8 |
| 20260509204029 | 61 | 171 | 5.0 | 14.0 | 0.00 | 0.00 | 0.00 | 77 | 1005.8 |
| 20260509203307 | 61 | 244 | 7.0 | 24.0 | 0.00 | 0.00 | 0.00 | 77 | 1005.8 |
| 20260509202807 | 61 | 209 | 7.0 | 24.0 | 0.00 | 0.00 | 0.00 | 76 | 1005.8 |
| 20260509202307 | 61 | 182 | 7.0 | 16.0 | 0.00 | 0.00 | 0.00 | 78 | 1005.9 |
| 20260509201807 | 61 | 221 | 8.0 | 16.0 | 0.00 | 0.00 | 0.00 | 78 | 1006.0 |
| 20260509201306 | 60 | 195 | 8.0 | 16.0 | 0.00 | 0.00 | 0.00 | 77 | 1006.0 |
| 20260509200807 | 60 | 136 | 6.0 | 13.0 | 0.00 | 0.00 | 0.00 | 78 | 1006.0 |
| 20260509200307 | 60 | 179 | 6.0 | 14.0 | 0.00 | 0.00 | 0.00 | 77 | 1006.0 |
| 20260509195807 | 61 | 171 | 6.0 | 14.0 | 0.00 | 0.00 | 0.00 | 78 | 1006.1 |
| 20260509195307 | 61 | 182 | 7.0 | 14.0 | 0.00 | 0.00 | 0.00 | 77 | 1006.2 |
| 20260509194807 | 61 | 206 | 6.0 | 17.0 | 0.00 | 0.00 | 0.00 | 76 | 1006.2 |
| 20260509194307 | 62 | 190 | 6.0 | 17.0 | 0.00 | 0.00 | 0.00 | 75 | 1006.3 |
| 20260509193807 | 62 | 186 | 6.0 | 18.0 | 0.00 | 0.00 | 0.00 | 77 | 1006.3 |
| 20260509193536 | 61 | 181 | 7.0 | 18.0 | 0.00 | 0.00 | 0.00 | 76 | 1006.3 |
| 20260509192808 | 61 | 173 | 7.0 | 15.0 | 0.00 | 0.00 | 0.00 | 77 | 1006.5 |
| 20260509192306 | 61 | 220 | 7.0 | 17.0 | 0.00 | 0.00 | 0.00 | 78 | 1006.6 |
| 20260509191805 | 60 | 150 | 7.0 | 17.0 | 0.00 | 0.00 | 0.00 | 77 | 1006.6 |
| 20260509191305 | 60 | 218 | 7.0 | 14.0 | 0.00 | 0.00 | 0.00 | 78 | 1006.6 |
| 20260509190805 | 60 | 184 | 7.0 | 13.0 | 0.00 | 0.00 | 0.00 | 77 | 1006.6 |
| 20260509190528 | 60 | 207 | 6.0 | 16.0 | 0.00 | 0.00 | 0.00 | 77 | 1006.7 |
| 20260509185804 | 61 | 168 | 6.0 | 16.0 | 0.00 | 0.00 | 0.00 | 78 | 1006.7 |
| 20260509185306 | 61 | 238 | 6.0 | 12.0 | 0.00 | 0.00 | 0.00 | 76 | 1006.8 |
| 20260509184805 | 61 | 243 | 5.0 | 12.0 | 0.00 | 0.00 | 0.00 | 77 | 1006.8 |
| 20260509184305 | 61 | 273 | 6.0 | 13.0 | 0.00 | 0.00 | 0.00 | 79 | 1006.9 |
| 20260509183805 | 61 | 219 | 6.0 | 13.0 | 0.00 | 0.00 | 0.00 | 81 | 1006.9 |
| 20260509183304 | 60 | 175 | 6.0 | 15.0 | 0.00 | 0.00 | 0.00 | 79 | 1007.0 |
| 20260509182805 | 60 | 194 | 6.0 | 15.0 | 0.00 | 0.00 | 0.00 | 80 | 1007.0 |
| 20260509182526 | 60 | 165 | 6.0 | 15.0 | 0.00 | 0.00 | 0.00 | 79 | 1007.0 |
| 20260509181806 | 60 | 180 | 5.0 | 15.0 | 0.00 | 0.00 | 0.00 | 78 | 1007.0 |
| 20260509181305 | 60 | 186 | 5.0 | 19.0 | 0.00 | 0.00 | 0.00 | 79 | 1007.0 |
| 20260509181022 | 60 | 213 | 6.0 | 19.0 | 0.00 | 0.00 | 0.00 | 77 | 1007.1 |
| 20260509180027 | 60 | 225 | 6.0 | 12.0 | 0.00 | 0.00 | 0.00 | 79 | 1007.0 |
| 20260509175301 | 60 | 215 | 5.0 | 10.0 | 0.00 | 0.00 | 0.00 | 80 | 1007.1 |
| 20260509174801 | 59 | 183 | 5.0 | 13.0 | 0.00 | 0.00 | 0.00 | 83 | 1007.1 |
| 20260509174301 | 58 | 234 | 6.0 | 13.0 | 0.00 | 0.00 | 0.00 | 81 | 1007.2 |
| 20260509173301 | 58 | 225 | 6.0 | 15.0 | 0.00 | 0.00 | 0.00 | 81 | 1007.2 |
| 20260509172802 | 57 | 154 | 5.0 | 15.0 | 0.00 | 0.00 | 0.00 | 81 | 1007.3 |
| 20260509172301 | 57 | 244 | 4.0 | 10.0 | 0.00 | 0.00 | 0.00 | 82 | 1007.2 |
| 20260509171800 | 57 | 224 | 4.0 | 11.0 | 0.00 | 0.00 | 0.00 | 81 | 1007.2 |
| 20260509171301 | 57 | 249 | 5.0 | 11.0 | 0.00 | 0.00 | 0.00 | 81 | 1007.2 |
| 20260509170800 | 57 | 180 | 5.0 | 13.0 | 0.00 | 0.00 | 0.00 | 81 | 1007.3 |
| 20260509170300 | 57 | 240 | 4.0 | 13.0 | 0.00 | 0.00 | 0.00 | 81 | 1007.3 |
| 20260509165803 | 57 | 214 | 5.0 | 13.0 | 0.00 | 0.00 | 0.00 | 82 | 1007.4 |
| 20260509165301 | 57 | 205 | 4.0 | 13.0 | 0.00 | 0.00 | 0.00 | 82 | 1007.4 |
| 20260509164800 | 57 | 158 | 4.0 | 9.0 | 0.00 | 0.00 | 0.00 | 83 | 1007.4 |
| 20260509164301 | 57 | 221 | 4.0 | 11.0 | 0.00 | 0.00 | 0.00 | 83 | 1007.4 |
| 20260509163800 | 56 | 197 | 4.0 | 11.0 | 0.00 | 0.00 | 0.00 | 84 | 1007.6 |
| 20260509163300 | 56 | 194 | 4.0 | 9.0 | 0.00 | 0.00 | 0.00 | 84 | 1007.8 |
| 20260509163028 | 56 | 205 | 4.0 | 9.0 | 0.00 | 0.00 | 0.00 | 83 | 1007.7 |
| 20260509161801 | 56 | 213 | 5.0 | 12.0 | 0.00 | 0.00 | 0.00 | 83 | 1007.9 |
| 20260509161300 | 56 | 182 | 4.0 | 11.0 | 0.00 | 0.00 | 0.00 | 83 | 1007.9 |